Bloomington, IL

8:11 AM CDT on September 21, 2017 (GMT -0500)
Central Ill Regional

Weather History for KBMI - September, 2013

Change the Weather History Date:

Wednesday, September 11, 2013

  Actual Average Record
Temperature  
Mean Temperature 82 °F -  
Max Temperature 95 °F 91 °F 95 °F (2013)
Min Temperature 70 °F 62 °F 46 °F (2017)
Cooling Degree Days 16    
Growing Degree Days 32 (Base 50)    
Moisture  
Dew Point 66 °F    
Average Humidity 62    
Maximum Humidity 90    
Minimum Humidity 31    
Precipitation  
Precipitation 0.00 in - - ()
Sea Level Pressure  
Sea Level Pressure 30.03 in    
Wind  
Wind Speed 10 mph (WSW)    
Max Wind Speed 15 mph    
Max Gust Speed 23 mph    
Visibility 10 miles    
Events      
Averages and records for this station are not official NWS values.
T = Trace of Precipitation, MM = Missing Value Source: NWS Daily Summary

Daily Weather History Graph

Daily Weather History Graph

Search for Another Location

Airport or City:

Trip Planner

Search our weather history database for the weather conditions in past years. The results will help you decide how hot, cold, wet, or windy it might be!

Date:

Astronomy

Sep. 11, 2013 Rise Set
Actual Time 6:32 AM CDT 7:10 PM CDT
Civil Twilight 6:05 AM CDT 7:38 PM CDT
Nautical Twilight 5:32 AM CDT 8:10 PM CDT
Astronomical Twilight 4:59 AM CDT 8:44 PM CDT
Moon 1:02 PM CDT (9/11) 11:05 PM CDT (9/11)
Length of Visible Light 13h 32m
Length of Day
12h 38m
Waxing Crescent, 39% of the Moon is Illuminated
Sep 11
Waxing Crescent
Sep 12
First Quarter
Sep 19
Full
Sep 26
Last Quarter
Oct 4
New

Hourly Weather History & Observations

Time (CDT) Temp. Heat Index Dew Point Humidity Pressure Visibility Wind Dir Wind Speed Gust Speed Precip Events Conditions
12:56 AM 75.9 °F - 70.0 °F 82% 30.02 in 10.0 mi SSW 9.2 mph - N/A   Clear
1:56 AM 75.9 °F - 70.0 °F 82% 30.02 in 10.0 mi SW 11.5 mph - N/A   Clear
2:56 AM 73.9 °F - 68.9 °F 84% 30.03 in 10.0 mi SW 9.2 mph - N/A   Clear
3:56 AM 72.0 °F - 68.0 °F 87% 30.04 in 10.0 mi SW 8.1 mph - N/A   Clear
4:56 AM 70.9 °F - 66.9 °F 87% 30.04 in 10.0 mi SW 8.1 mph - N/A   Clear
5:56 AM 70.0 °F - 66.9 °F 90% 30.06 in 10.0 mi SSW 6.9 mph - N/A   Clear
6:56 AM 70.9 °F - 65.8 °F 84% 30.08 in 10.0 mi SW 8.1 mph - N/A   Clear
7:56 AM 73.9 °F - 65.8 °F 76% 30.09 in 10.0 mi SW 10.4 mph - N/A   Mostly Cloudy
8:56 AM 77.9 °F - 65.8 °F 66% 30.09 in 10.0 mi SW 9.2 mph - N/A   Partly Cloudy
9:56 AM 83.8 °F 86.0 °F 65.8 °F 55% 30.08 in 10.0 mi WSW 10.4 mph - N/A   Clear
10:56 AM 86.9 °F 88.6 °F 64.9 °F 48% 30.06 in 10.0 mi West 12.7 mph - N/A   Clear
11:56 AM 90.0 °F 92.4 °F 65.8 °F 45% 30.05 in 10.0 mi WSW 10.4 mph - N/A   Clear
12:56 PM 91.9 °F 92.9 °F 63.0 °F 38% 30.04 in 10.0 mi WSW 13.8 mph 23.0 mph N/A   Clear
1:56 PM 93.9 °F 93.6 °F 59.9 °F 32% 30.02 in 10.0 mi West 15.0 mph 23.0 mph N/A   Clear
2:56 PM 93.9 °F 93.2 °F 59.0 °F 31% 30.01 in 10.0 mi WSW 15.0 mph - N/A   Partly Cloudy
3:56 PM 93.9 °F 93.6 °F 59.9 °F 32% 29.99 in 10.0 mi SW 15.0 mph 20.7 mph N/A   Partly Cloudy
4:56 PM 92.8 °F 93.5 °F 61.9 °F 36% 29.99 in 10.0 mi West 15.0 mph - N/A   Scattered Clouds
5:56 PM 88.9 °F 89.7 °F 63.0 °F 42% 30.00 in 10.0 mi West 12.7 mph - N/A   Partly Cloudy
6:56 PM 86.0 °F 89.4 °F 68.0 °F 55% 30.00 in 10.0 mi NNW 8.1 mph - N/A   Clear
7:56 PM 82.9 °F 85.4 °F 66.9 °F 58% 30.01 in 10.0 mi NNW 5.8 mph - N/A   Clear
8:56 PM 81.0 °F 83.0 °F 65.8 °F 60% 30.01 in 10.0 mi NNW 4.6 mph - N/A   Clear
9:56 PM 79.9 °F - 66.9 °F 64% 30.01 in 10.0 mi NNW 6.9 mph - N/A   Scattered Clouds
10:56 PM 79.0 °F - 65.8 °F 64% 30.01 in 10.0 mi North 9.2 mph - 0.00 in   Scattered Clouds
11:56 PM 74.8 °F - 68.0 °F 79% 30.00 in 10.0 mi North 5.8 mph - 0.00 in   Partly Cloudy